Whiteman AFB, MO

3:24 PM CST on November 16, 2019 (GMT -0600)
Whiteman Air Force Base

Weather History for KSZL - May, 2019

Change the Weather History Date:

Saturday, May 11, 2019

  Actual Average Record
Temperature  
Mean Temperature 52 °F -  
Max Temperature 56 °F 72 °F 87 °F (2011)
Min Temperature 48 °F 53 °F 43 °F (2013)
Degree Days  
Heating Degree Days 14    
Growing Degree Days 2 (Base 50)    
Moisture  
Dew Point 49 °F    
Average Humidity 89    
Maximum Humidity 100    
Minimum Humidity 70    
Precipitation  
Precipitation 0.11 in - - ()
Sea Level Pressure  
Sea Level Pressure 29.95 in    
Wind  
Wind Speed 5 mph (ENE)    
Max Wind Speed 9 mph    
Max Gust Speed -    
Visibility 10 miles    
Events Rain    
Averages and records for this station are not official NWS values.
T = Trace of Precipitation, MM = Missing Value Source: NWS Daily Summary

Daily Weather History Graph

Daily Weather History Graph

Search for Another Location

Airport or City:

Astronomy

May. 11, 2019 Rise Set
Actual Time 6:05 AM CDT 8:15 PM CDT
Civil Twilight 5:36 AM CDT 8:45 PM CDT
Nautical Twilight 5:00 AM CDT 9:21 PM CDT
Astronomical Twilight 4:20 AM CDT 10:01 PM CDT
Moon 12:15 PM CDT (5/11) 1:56 AM CDT (5/11)
Length of Visible Light 15h 08m
Length of Day
14h 09m
Waxing Crescent, 46% of the Moon is Illuminated
May 11
Waxing Crescent
May 11
First Quarter
May 18
Full
May 26
Last Quarter
Jun 3
New

Hourly Weather History & Observations

Time (CDT) Temp. Dew Point Humidity Pressure Visibility Wind Dir Wind Speed Gust Speed Precip Events Conditions
12:56 AM 52.7 °F 43.5 °F 71% 30.02 in 10.0 mi East 8.1 mph - N/A   Mostly Cloudy
1:56 AM 52.3 °F 42.8 °F 70% 30.03 in 10.0 mi East 3.5 mph - N/A   Overcast
2:56 AM 51.3 °F 44.6 °F 78% 30.02 in 10.0 mi Calm Calm - N/A   Overcast
3:56 AM 50.5 °F 45.5 °F 83% 30.01 in 10.0 mi Calm Calm - N/A   Overcast
4:56 AM 50.2 °F 47.1 °F 89% 30.01 in 10.0 mi ESE 4.6 mph - N/A   Overcast
5:56 AM 49.3 °F 48.4 °F 97% 30.01 in 9.0 mi East 3.5 mph - N/A Rain Light Rain Showers
6:56 AM 48.4 °F 48.4 °F 100% 29.98 in 9.0 mi East 4.6 mph - 0.01 in Rain Light Rain Showers
7:56 AM 48.6 °F 48.6 °F 100% 29.99 in 6.0 mi East 3.5 mph - 0.02 in Rain Rain Showers
8:56 AM 49.3 °F 49.3 °F 100% 29.97 in 10.0 mi East 5.8 mph - 0.08 in Rain Light Rain
9:23 AM 50.0 °F 50.0 °F 100% 29.98 in 10.0 mi East 5.8 mph - N/A   Overcast
9:56 AM 49.8 °F 49.8 °F 100% 30.00 in 10.0 mi East 4.6 mph - 0.00 in   Overcast
10:11 AM 50.0 °F 50.0 °F 100% 30.00 in 10.0 mi East 5.8 mph - N/A   Light Drizzle
10:56 AM 50.5 °F 50.2 °F 99% 29.99 in 6.0 mi East 5.8 mph - 0.00 in   Drizzle
10:59 AM 50.0 °F 50.0 °F 100% 29.99 in 10.0 mi East 4.6 mph - N/A   Light Drizzle
11:04 AM 51.8 °F 51.8 °F 100% 29.99 in 10.0 mi East 4.6 mph - N/A   Light Drizzle
11:24 AM 53.6 °F 50.0 °F 88% 29.98 in 10.0 mi ENE 4.6 mph - N/A   Overcast
11:39 AM 51.8 °F 50.0 °F 94% 29.98 in 10.0 mi East 6.9 mph - N/A   Overcast
11:44 AM 51.8 °F 50.0 °F 94% 29.98 in 10.0 mi East 4.6 mph - N/A   Mostly Cloudy
11:54 AM 53.6 °F 50.0 °F 88% 29.97 in 10.0 mi East 8.1 mph - N/A   Overcast
11:56 AM 53.1 °F 50.5 °F 91% 29.97 in 10.0 mi East 8.1 mph - 0.00 in   Overcast
12:46 PM 53.6 °F 50.0 °F 88% 29.96 in 10.0 mi ENE 8.1 mph - N/A   Overcast
12:56 PM 52.5 °F 48.4 °F 86% 29.95 in 10.0 mi ENE 5.8 mph - N/A   Overcast
1:41 PM 53.6 °F 48.2 °F 82% 29.95 in 10.0 mi ENE 4.6 mph - N/A   Overcast
1:56 PM 54.3 °F 48.6 °F 81% 29.93 in 10.0 mi ENE 5.8 mph - N/A   Overcast
2:01 PM 55.4 °F 48.2 °F 77% 29.93 in 10.0 mi NE 8.1 mph - N/A   Overcast
2:06 PM 55.4 °F 48.2 °F 77% 29.93 in 10.0 mi NE 5.8 mph - N/A   Overcast
2:56 PM 55.4 °F 48.7 °F 78% 29.91 in 10.0 mi NE 9.2 mph - N/A   Overcast
4:01 PM 53.4 °F 47.7 °F 81% 29.89 in 10.0 mi Variable 6.9 mph - N/A   Overcast
4:56 PM 52.7 °F 48.9 °F 87% 29.88 in 10.0 mi ENE 4.6 mph - N/A   Overcast
5:55 PM 53.2 °F 48.2 °F 83% 29.87 in 10.0 mi NE 6.9 mph - N/A   Overcast
6:56 PM 53.1 °F 49.3 °F 87% 29.86 in 10.0 mi NNE 4.6 mph - N/A   Overcast
7:59 PM 52.3 °F 49.5 °F 90% 29.86 in 10.0 mi NE 4.6 mph - N/A   Overcast
8:56 PM 51.6 °F 48.2 °F 88% 29.86 in 10.0 mi NE 5.8 mph - N/A   Overcast
9:56 PM 51.3 °F 49.3 °F 93% 29.88 in 10.0 mi NNE 4.6 mph - N/A   Overcast
10:56 PM 51.1 °F 48.9 °F 92% 29.89 in 10.0 mi ENE 3.5 mph - N/A   Overcast
11:56 PM 49.6 °F 47.5 °F 92% 29.86 in 10.0 mi East 3.5 mph - N/A   Scattered Clouds